TimeCST,TemperatureF,Dew PointF,Humidity,Sea Level PressureIn,VisibilityMPH,Wind Direction,Wind SpeedMPH,Gust SpeedMPH,PrecipitationIn,Events,Conditions,WindDirDegrees,DateUTC
12:58 AM,48.0,36.9,65,29.93,10.0,West,5.8,-,N/A,,Clear,280,2013-02-27 06:58:00
1:58 AM,46.6,37.6,71,29.93,10.0,West,4.6,-,N/A,,Clear,270,2013-02-27 07:58:00
2:58 AM,46.2,36.7,69,29.92,10.0,WNW,4.6,-,N/A,,Clear,290,2013-02-27 08:58:00
3:58 AM,44.4,37.4,76,29.93,10.0,West,2.3,-,N/A,,Clear,270,2013-02-27 09:58:00
4:58 AM,43.2,37.6,81,29.95,10.0,SW,2.3,-,N/A,,Clear,220,2013-02-27 10:58:00
5:58 AM,42.1,37.8,85,29.96,10.0,WSW,4.6,-,N/A,,Overcast,240,2013-02-27 11:58:00
6:58 AM,43.0,39.0,86,29.97,10.0,WNW,3.5,-,N/A,,Overcast,290,2013-02-27 12:58:00
7:58 AM,45.5,39.0,78,29.98,10.0,WSW,3.5,-,N/A,,Scattered Clouds,250,2013-02-27 13:58:00
8:58 AM,48.4,37.8,67,30.00,10.0,NNW,2.3,-,N/A,,Partly Cloudy,330,2013-02-27 14:58:00
9:58 AM,50.5,36.7,59,30.02,10.0,West,8.1,-,N/A,,Scattered Clouds,280,2013-02-27 15:58:00
10:58 AM,52.7,37.4,56,30.02,10.0,Variable,5.8,-,N/A,,Overcast,0,2013-02-27 16:58:00
11:58 AM,54.0,38.1,55,30.00,10.0,West,8.1,-,N/A,,Scattered Clouds,260,2013-02-27 17:58:00
12:55 PM,55.4,39.2,54,29.97,10.0,WSW,4.6,-,N/A,,Partly Cloudy,240,2013-02-27 18:55:00
1:55 PM,57.2,39.2,51,29.94,10.0,WSW,6.9,-,N/A,,Partly Cloudy,240,2013-02-27 19:55:00
2:55 PM,59.0,39.2,48,29.94,10.0,SSW,11.5,-,N/A,,Clear,210,2013-02-27 20:55:00
3:55 PM,59.0,39.2,48,29.93,10.0,West,9.2,-,N/A,,Clear,260,2013-02-27 21:55:00
4:31 PM,59.0,39.2,48,29.93,10.0,WSW,5.8,-,N/A,,Clear,240,2013-02-27 22:31:00
4:55 PM,59.0,39.2,48,29.93,10.0,WSW,5.8,-,N/A,,Clear,250,2013-02-27 22:55:00
5:58 PM,55.4,41.0,58,29.94,10.0,SSW,4.6,-,N/A,,Clear,200,2013-02-27 23:58:00
6:55 PM,53.6,41.0,62,29.94,10.0,SSW,5.8,-,N/A,,Clear,200,2013-02-28 00:55:00
7:59 PM,51.8,41.0,67,29.95,10.0,SSW,4.6,-,N/A,,Clear,210,2013-02-28 01:59:00
8:55 PM,48.2,42.8,82,29.96,10.0,SSW,5.8,-,N/A,,Clear,210,2013-02-28 02:55:00
9:55 PM,48.2,42.8,82,29.96,10.0,WSW,3.5,-,N/A,,Clear,250,2013-02-28 03:55:00
10:55 PM,46.4,41.0,81,29.96,10.0,SW,4.6,-,N/A,,Clear,230,2013-02-28 04:55:00
11:55 PM,46.4,41.0,81,29.96,10.0,WSW,3.5,-,N/A,,Clear,240,2013-02-28 05:55:00